TimeCST,TemperatureF,Dew PointF,Humidity,Sea Level PressureIn,VisibilityMPH,Wind Direction,Wind SpeedMPH,Gust SpeedMPH,PrecipitationIn,Events,Conditions,WindDirDegrees,DateUTC
12:53 AM,48.9,46.9,93,30.23,10.0,Calm,Calm,-,N/A,,Partly Cloudy,0,2012-12-04 06:53:00
1:53 AM,50.0,46.9,89,30.24,10.0,Calm,Calm,-,N/A,,Scattered Clouds,0,2012-12-04 07:53:00
2:53 AM,48.9,46.9,93,30.24,9.0,Calm,Calm,-,N/A,,Clear,0,2012-12-04 08:53:00
3:53 AM,48.9,46.9,93,30.25,9.0,Calm,Calm,-,N/A,,Mostly Cloudy,0,2012-12-04 09:53:00
4:53 AM,46.0,45.0,96,30.27,8.0,Calm,Calm,-,N/A,,Clear,0,2012-12-04 10:53:00
5:53 AM,46.9,45.0,93,30.27,9.0,ENE,3.5,-,N/A,,Clear,60,2012-12-04 11:53:00
6:53 AM,46.9,46.0,97,30.30,7.0,Calm,Calm,-,N/A,,Mostly Cloudy,0,2012-12-04 12:53:00
7:53 AM,54.0,50.0,86,30.31,9.0,ENE,4.6,-,N/A,,Overcast,70,2012-12-04 13:53:00
8:53 AM,61.0,51.1,70,30.32,10.0,NE,4.6,-,N/A,,Overcast,50,2012-12-04 14:53:00
9:53 AM,66.0,51.1,59,30.31,10.0,East,4.6,-,N/A,,Mostly Cloudy,90,2012-12-04 15:53:00
10:53 AM,70.0,51.1,51,30.29,10.0,Calm,Calm,-,N/A,,Partly Cloudy,0,2012-12-04 16:53:00
11:53 AM,73.0,52.0,48,30.25,10.0,SSW,8.1,-,N/A,,Mostly Cloudy,210,2012-12-04 17:53:00
12:53 PM,73.0,52.0,48,30.22,10.0,SW,10.4,-,N/A,,Overcast,230,2012-12-04 18:53:00
1:53 PM,73.0,54.0,51,30.20,10.0,SSW,11.5,-,N/A,,Mostly Cloudy,210,2012-12-04 19:53:00
2:53 PM,72.0,54.0,53,30.20,10.0,SSW,8.1,-,N/A,,Overcast,200,2012-12-04 20:53:00
3:53 PM,70.0,55.9,61,30.20,10.0,WSW,9.2,-,N/A,,Overcast,240,2012-12-04 21:53:00
4:53 PM,69.1,55.9,63,30.20,10.0,SSW,3.5,-,N/A,,Overcast,210,2012-12-04 22:53:00
5:53 PM,64.9,55.9,73,30.22,10.0,Calm,Calm,-,N/A,,Overcast,0,2012-12-04 23:53:00
6:53 PM,63.0,55.9,78,30.22,7.0,Calm,Calm,-,N/A,,Overcast,0,2012-12-05 00:53:00
7:53 PM,61.0,57.0,87,30.23,10.0,Calm,Calm,-,N/A,,Overcast,0,2012-12-05 01:53:00
8:53 PM,61.0,57.0,87,30.22,10.0,Calm,Calm,-,N/A,,Overcast,0,2012-12-05 02:53:00
9:53 PM,60.1,55.9,86,30.21,10.0,Calm,Calm,-,N/A,,Overcast,0,2012-12-05 03:53:00
10:53 PM,57.9,55.0,90,30.20,10.0,Calm,Calm,-,N/A,,Overcast,0,2012-12-05 04:53:00
11:53 PM,55.9,54.0,93,30.20,10.0,Calm,Calm,-,N/A,,Mostly Cloudy,0,2012-12-05 05:53:00